ELDEND Weather Reports


time (UTC)temp
C
wind
direction
speed
KPH
gust
KPH
rain 1hr
cm
rain 24hr
cm
rain mn
cm
humidity
%
barometer
mb
20260510170031 29 227 4.8 17.7 0.00 0.00 0.00 53 1018.0
20260510164530 29 250 6.4 19.3 0.00 0.00 0.00 51 1018.0
20260510163032 29 194 6.4 24.1 0.00 0.00 0.00 47 1018.1
20260510161535 29 0 1.6 12.9 0.00 0.00 0.00 44 1018.0
20260510160036 28 242 4.8 16.1 0.00 0.00 0.00 48 1018.1
20260510154530 28 184 3.2 12.9 0.00 0.00 0.00 52 1018.1
20260510153035 28 136 4.8 16.1 0.00 0.00 0.00 49 1017.9
20260510151531 28 194 3.2 12.9 0.00 0.00 0.00 49 1017.7
20260510150041 28 174 3.2 19.3 0.00 0.00 0.00 49 1017.7
20260510144534 28 213 6.4 14.5 0.00 0.00 0.00 41 1017.5
20260510143032 28 204 1.6 12.9 0.00 0.00 0.00 35 1017.6
20260510141533 27 0 4.8 16.1 0.00 0.00 0.00 30 1017.4
20260510140031 27 218 4.8 12.9 0.00 0.00 0.00 29 1017.2
20260510134534 27 0 4.8 14.5 0.00 0.00 0.00 24 1017.1
20260510133029 26 188 3.2 11.3 0.00 0.00 0.00 16 1017.2
20260510131532 26 182 4.8 14.5 0.00 0.00 0.00 11 1017.0
20260510130032 25 126 3.2 14.5 0.00 0.00 0.00 100 1016.8
20260510124531 25 196 4.8 14.5 0.00 0.00 0.00 100 1016.6
20260510123030 24 0 0.0 8.0 0.00 0.00 0.00 100 1016.7
20260510121529 23 0 0.0 6.4 0.00 0.00 0.00 100 1016.7
20260510120030 23 0 0.0 0.0 0.00 0.00 0.00 100 1016.6
20260510114536 22 0 0.0 0.0 0.00 0.00 0.00 100 1016.5
20260510113034 22 0 0.0 0.0 0.00 0.00 0.00 100 1016.0
20260510111529 22 0 0.0 0.0 0.00 0.00 0.00 100 1015.9
20260510110029 22 0 0.0 0.0 0.00 0.00 0.00 100 1015.5
20260510104535 22 0 0.0 0.0 0.00 0.00 0.00 100 1015.0
20260510103026 22 0 0.0 0.0 0.00 0.00 0.00 100 1015.0
20260510101533 22 0 0.0 1.6 0.00 0.00 0.00 100 1014.7
20260510100030 22 0 0.0 0.0 0.00 0.00 0.00 100 1014.7
20260510094539 22 0 0.0 1.6 0.00 0.00 0.00 100 1014.5
20260510093029 22 0 0.0 8.0 0.00 0.00 0.00 100 1014.3
20260510091529 22 0 0.0 1.6 0.00 0.00 0.00 100 1014.2
20260510090030 22 0 0.0 3.2 0.00 0.00 0.00 100 1014.0
20260510084530 22 0 0.0 0.0 0.00 0.00 0.00 100 1013.9
20260510083031 22 0 0.0 1.6 0.00 0.00 0.00 100 1013.9
20260510081538 22 0 0.0 3.2 0.00 0.00 0.00 100 1013.7
20260510080033 22 171 0.0 9.7 0.00 0.00 0.00 100 1013.7
20260510074530 23 157 0.0 3.2 0.00 0.00 0.00 100 1013.6
20260510073028 23 0 1.6 9.7 0.00 0.00 0.00 100 1013.9
20260510071532 23 174 1.6 9.7 0.00 0.00 0.00 100 1013.8
20260510070034 22 0 0.0 4.8 0.00 0.00 0.00 100 1013.9
20260510064531 22 0 0.0 8.0 0.00 0.00 0.00 100 1014.2
20260510063033 22 0 0.0 8.0 0.00 0.00 0.00 100 1014.2
20260510061532 22 0 0.0 6.4 0.00 0.00 0.00 100 1014.4
20260510060028 22 0 0.0 3.2 0.00 0.00 0.00 100 1014.8
20260510054540 22 0 0.0 3.2 0.00 0.00 0.00 100 1015.0
20260510053030 22 0 0.0 3.2 0.00 0.00 0.00 100 1015.0
20260510051535 22 0 0.0 1.6 0.00 0.00 0.00 100 1015.4
20260510050031 22 0 0.0 1.6 0.00 0.00 0.00 2 1015.5
20260510044535 22 0 0.0 0.0 0.00 0.00 0.00 7 1015.8
20260510043028 22 0 0.0 0.0 0.00 0.00 0.00 13 1015.9
20260510041533 22 0 0.0 0.0 0.00 0.00 0.00 17 1015.9
20260510040030 22 0 0.0 0.0 0.00 0.00 0.00 16 1016.0
20260510034532 22 0 0.0 0.0 0.00 0.00 0.00 19 1016.1
20260510033029 22 0 0.0 0.0 0.00 0.00 0.00 19 1016.0
20260510031546 22 0 0.0 0.0 0.00 0.00 0.00 22 1015.9
20260510030035 22 0 0.0 3.2 0.00 0.00 0.00 25 1015.8
20260510024528 22 0 0.0 0.0 0.00 0.00 0.00 24 1015.7
20260510023032 23 0 0.0 0.0 0.00 0.00 0.00 28 1015.6
20260510021532 23 0 0.0 0.0 0.00 0.00 0.00 33 1015.5
20260510020030 23 0 0.0 0.0 0.00 0.00 0.00 34 1015.4
20260510014531 23 0 0.0 0.0 0.00 0.00 0.00 36 1015.1
20260510013030 23 0 0.0 0.0 0.00 0.00 0.00 41 1015.1
20260510011532 23 0 0.0 1.6 0.00 0.00 0.00 43 1014.9
20260510010032 24 0 0.0 3.2 0.00 0.00 0.00 45 1014.9
20260510004531 24 0 0.0 3.2 0.00 0.00 0.00 47 1014.6
20260510003030 25 0 0.0 8.0 0.00 0.00 0.00 47 1014.6
20260510001530 25 0 0.0 6.4 0.00 0.00 0.00 48 1014.5
20260510000031 25 0 0.0 6.4 0.00 0.00 0.00 49 1014.6
20260509234533 25 350 1.6 9.7 0.00 0.00 0.00 52 1014.2
20260509233030 26 345 1.6 12.9 0.00 0.00 0.00 52 1014.0
20260509231531 26 0 0.0 1.6 0.00 0.00 0.00 51 1014.1
20260509230031 26 0 1.6 9.7 0.00 0.00 0.00 52 1014.0
20260509224529 27 0 0.0 8.0 0.00 0.00 0.00 51 1014.1
20260509223028 27 350 3.2 12.9 0.00 0.00 0.00 51 1014.2
20260509221533 27 360 1.6 12.9 0.00 0.00 0.00 56 1014.2
20260509220028 27 0 0.0 12.9 0.00 0.00 0.00 59 1014.1
20260509214530 28 0 3.2 12.9 0.00 0.00 0.00 63 1013.9
20260509213032 28 257 1.6 14.5 0.00 0.00 0.00 66 1013.7
20260509211530 29 213 6.4 19.3 0.00 0.00 0.00 66 1013.4
20260509210043 29 241 3.2 14.5 0.00 0.00 0.00 66 1013.3
20260509204529 30 0 1.6 16.1 0.00 0.00 0.00 65 1013.4
20260509203027 30 255 6.4 19.3 0.00 0.00 0.00 65 1013.3
20260509201532 30 227 4.8 14.5 0.00 0.00 0.00 65 1013.3
20260509200032 30 184 1.6 20.9 0.00 0.00 0.00 65 1013.3
20260509194533 30 207 4.8 19.3 0.00 0.00 0.00 65 1013.3
20260509193029 29 238 6.4 16.1 0.00 0.00 0.00 65 1013.5
20260509191530 29 213 6.4 19.3 0.00 0.00 0.00 64 1013.6
20260509190035 29 196 8.0 22.5 0.00 0.00 0.00 65 1013.9
20260509184536 29 215 4.8 17.7 0.00 0.00 0.00 66 1014.0
20260509183032 30 238 3.2 14.5 0.00 0.00 0.00 66 1014.1
20260509181531 29 234 3.2 14.5 0.00 0.00 0.00 66 1014.3
20260509180032 30 213 4.8 16.1 0.00 0.00 0.00 66 1014.5
20260509174530 30 223 4.8 19.3 0.00 0.00 0.00 66 1014.6
20260509173053 30 236 4.8 17.7 0.00 0.00 0.00 65 1014.6
20260509171536 31 249 4.8 19.3 0.00 0.00 0.00 64 1014.6